Theta_e
316 315 321 325 314 310 313 315 312 314 316 319 316 315 315 322 318 314 332 333 334 333 333 333 333 331 331 330 331 330 326 329 329 325 324 321 317 314 311 310 311 312 313 313 313 313 314 315 318
315 319 323 319 311 312 312 311 314 313 320 320 320 321 322 324 329 330 333 331 334 332 333 332 332 332 331 330 330 328 325 328 323 320 318 322 322 319 316 314 311 309 310 310 311 311 311 312 312
317 321 321 309 307 311 313 313 312 316 317 315 319 320 322 324 328 328 328 331 334 333 332 333 332 332 331 330 330 329 326 322 320 320 320 323 324 324 324 322 318 316 311 308 308 308 308 309 311
321 321 314 310 315 313 314 312 313 316 316 315 319 321 323 324 326 325 331 332 335 334 332 333 333 332 332 331 330 329 327 323 321 322 323 324 326 325 325 325 324 320 317 313 307 305 305 307 308
321 319 310 312 313 313 311 313 315 313 314 317 316 319 323 323 323 324 329 333 333 334 333 333 333 333 332 331 330 328 329 326 323 324 325 325 326 326 325 326 325 323 320 317 309 304 304 305 306
319 315 310 313 313 314 313 314 314 313 313 315 318 322 321 321 320 322 328 332 334 332 333 334 334 333 332 332 330 328 329 328 326 328 327 327 327 326 326 326 325 323 321 319 318 310 304 303 303
314 309 311 311 313 315 314 314 312 312 314 315 319 316 320 321 322 326 328 330 332 332 332 333 334 332 331 331 330 328 329 329 328 328 328 327 327 327 326 326 325 320 320 319 318 318 318 312 305
316 309 310 310 312 315 314 314 314 314 313 316 317 314 319 319 322 326 329 330 332 331 331 331 332 333 332 331 330 329 329 330 329 329 329 328 328 327 327 327 326 323 320 320 320 319 318 317 317
314 307 309 310 311 313 313 313 312 314 314 316 316 316 316 319 320 325 329 330 330 332 331 331 331 332 333 333 332 331 331 331 331 331 331 329 329 328 328 327 326 325 323 321 321 320 319 319 319
309 307 310 310 309 313 313 314 313 314 313 314 314 316 316 319 319 321 324 325 328 329 330 330 335 336 338 335 333 332 330 331 332 332 332 331 330 329 328 327 326 325 323 322 321 321 320 320 319
309 308 310 314 315 315 313 313 314 313 311 314 315 316 316 319 320 320 321 323 321 323 325 326 326 326 337 336 333 332 330 330 331 331 331 330 329 329 328 328 327 326 325 323 321 321 320 320 320
312 312 312 314 315 314 312 314 313 313 315 316 316 315 316 317 318 317 318 320 320 319 320 321 322 322 322 326 326 332 331 330 329 329 329 330 328 327 328 330 329 327 326 325 324 322 321 321 320
312 312 314 315 315 315 315 314 313 314 315 315 316 315 315 316 316 317 318 318 317 317 317 318 319 320 322 323 322 322 329 330 330 329 329 330 329 329 328 329 329 327 325 325 324 323 323 322 321
314 314 314 315 315 314 314 314 315 316 316 316 316 316 315 315 316 316 316 316 315 315 314 314 314 314 315 317 320 322 323 329 330 329 329 330 328 328 329 330 329 327 325 323 323 323 321 320 319
313 313 311 311 314 314 314 312 311 316 316 316 316 315 315 315 315 315 315 315 315 314 314 314 313 312 312 312 312 319 329 327 329 327 327 328 327 327 327 329 328 326 324 322 322 320 319 319 317
311 309 312 311 312 313 312 310 310 313 314 314 315 315 315 314 315 314 314 314 314 314 313 312 312 312 312 311 311 316 326 328 322 326 327 327 327 326 326 328 326 325 323 320 319 321 320 318 317
308 312 312 311 311 311 310 311 311 312 312 312 313 314 314 314 314 315 314 314 313 313 312 312 312 312 312 312 311 319 324 323 325 325 326 327 326 326 327 326 325 323 322 322 321 320 319 317 314
312 312 311 312 312 310 311 308 308 313 312 313 313 313 313 314 315 315 315 314 313 312 312 312 312 312 312 312 312 319 322 323 324 325 325 325 325 326 327 324 324 323 320 321 321 320 317 314 312
309 311 312 311 311 312 310 308 309 313 311 311 313 314 315 315 317 315 314 313 313 312 312 312 312 313 313 312 312 319 318 323 323 323 322 323 322 325 324 325 322 319 320 320 319 317 314 312 309
311 312 311 310 310 311 310 310 310 309 310 313 315 315 316 316 317 316 315 314 313 313 312 312 312 312 313 312 313 318 317 322 321 321 321 321 321 323 323 321 319 319 319 316 313 311 308 306 305
310 310 311 312 311 309 309 310 309 309 310 312 313 315 316 316 317 317 316 315 314 313 313 312 311 312 312 312 314 317 318 321 320 320 319 318 318 323 321 320 319 317 316 310 304 302 302 301 302
312 309 311 312 313 313 310 313 310 310 310 308 314 314 316 316 317 316 316 315 315 315 313 312 311 311 312 312 313 316 317 318 319 319 318 317 318 319 320 319 316 315 309 303 300 299 298 298 298
312 310 310 311 311 311 311 312 312 311 311 311 313 316 317 317 317 317 317 316 315 314 313 312 310 310 311 312 313 315 317 318 318 319 317 316 317 319 318 316 314 309 302 299 298 297 297 296 296
309 310 309 308 310 313 311 312 312 311 312 311 312 315 317 316 316 316 316 316 315 313 312 311 309 309 311 312 313 314 318 319 319 318 317 316 316 317 315 313 308 302 298 297 297 297 297 296 296
311 312 314 311 311 315 309 311 314 311 310 309 310 316 316 316 316 316 317 317 316 314 312 310 309 309 311 312 314 315 318 318 317 318 316 315 316 316 313 308 300 297 297 297 297 297 297 296 295
310 312 313 312 311 311 309 313 313 309 311 313 312 315 315 316 316 316 316 316 315 313 311 309 309 309 310 312 314 316 317 317 316 316 317 317 315 316 311 301 297 297 297 297 297 297 296 296 295
311 312 311 313 297 308 310 309 309 308 308 310 312 314 316 317 317 317 317 316 315 313 311 309 308 309 310 312 314 316 316 315 315 315 315 316 316 315 307 298 297 296 297 297 297 297 296 295 294
310 310 313 310 312 310 311 311 313 313 312 309 308 312 316 315 317 317 317 316 315 313 311 309 308 308 309 311 313 315 316 315 314 314 314 315 315 312 303 297 296 296 296 297 297 296 295 294 294
311 312 311 311 310 311 310 313 308 311 310 310 310 315 315 316 316 316 316 316 314 312 310 309 308 308 309 311 313 315 316 313 313 313 313 314 313 308 300 296 296 296 296 296 296 295 294 294 293
309 310 310 311 310 309 310 315 308 309 309 310 312 315 315 315 316 316 315 315 315 313 312 310 308 308 308 310 312 314 315 313 312 312 312 312 311 304 297 295 295 295 295 295 295 295 294 293 292
Wind_Speed
3 2 1 1 4 5 0 2 1 4 1 2 6 3 5 4 3 3 19 12 11 12 13 12 12 12 12 12 12 12 12 12 11 11 12 15 17 18 18 18 17 15 14 14 12 11 11 12 12
2 1 1 3 5 4 4 3 5 4 10 17 12 6 3 2 4 11 13 11 12 13 13 13 12 11 10 10 10 10 10 10 10 10 12 14 16 18 19 18 18 17 15 14 12 11 11 10 12
3 0 0 4 4 4 4 4 5 8 14 4 5 4 3 4 10 12 10 13 16 14 13 13 13 12 10 9 8 8 7 7 8 9 10 12 14 16 18 17 17 16 16 16 14 13 11 11 10
4 1 5 4 2 3 3 5 5 10 3 4 9 5 4 5 9 9 13 14 15 14 13 13 13 12 11 9 8 7 6 6 6 7 8 10 11 13 16 17 17 16 16 15 14 13 13 12 11
3 2 4 4 2 1 3 7 15 5 2 6 5 5 4 8 7 10 14 15 13 15 14 13 13 12 11 10 8 6 5 4 4 5 6 7 9 12 15 16 16 16 15 14 13 14 13 13 12
2 3 5 2 2 2 2 9 8 5 5 7 5 9 6 10 12 12 15 16 13 14 15 14 13 13 12 10 9 7 5 4 4 5 5 6 7 9 11 13 16 17 16 14 14 13 12 11 11
6 4 4 5 3 1 4 11 5 8 7 6 9 6 5 15 16 15 16 16 14 15 15 15 14 14 13 12 11 9 7 6 5 4 3 4 4 6 7 10 13 17 18 16 14 14 13 13 13
4 6 4 3 5 4 5 10 5 9 4 9 9 5 4 19 18 18 17 16 15 16 17 16 15 14 14 13 12 11 9 8 7 6 5 4 3 4 4 7 9 13 15 15 15 15 14 12 12
3 5 3 7 7 4 9 4 6 5 7 11 8 6 5 19 20 20 20 19 19 18 18 18 18 18 16 15 13 12 11 10 9 8 7 5 4 3 4 4 5 7 10 11 12 13 14 12 12
4 4 8 6 5 3 7 5 12 5 7 8 9 11 9 18 22 23 23 21 22 21 21 19 19 19 18 15 14 12 11 11 10 9 7 6 5 4 4 4 1 3 4 5 6 8 10 10 11
3 4 5 3 2 3 6 4 9 7 4 12 16 16 14 20 24 23 22 21 20 20 21 21 21 20 20 19 18 16 15 15 13 11 11 10 8 7 7 7 5 2 1 1 3 4 5 6 7
3 2 2 2 0 3 4 4 5 13 9 6 15 13 16 22 25 25 24 23 22 22 21 21 21 20 20 21 21 19 20 18 16 16 15 15 11 9 10 12 9 4 3 4 3 4 2 3 4
3 0 1 1 1 1 3 5 7 12 18 11 9 15 18 21 23 23 23 23 23 23 21 21 21 22 22 23 23 22 22 23 21 19 18 19 15 14 11 16 13 6 5 5 4 3 2 3 3
3 1 1 2 2 3 2 2 2 6 17 15 15 17 20 22 22 24 26 26 26 24 23 22 22 23 24 24 25 24 22 23 22 20 21 21 18 15 15 21 14 8 8 7 5 4 1 5 4
3 1 4 3 3 2 4 6 11 22 13 14 18 20 23 25 26 27 24 25 25 24 24 23 23 23 23 24 24 26 23 23 21 20 21 23 22 20 18 19 15 12 10 8 9 7 7 5 6
4 5 2 2 5 2 5 8 12 9 23 21 20 21 25 27 29 28 27 26 26 27 26 24 24 23 23 23 22 24 23 25 20 22 22 22 21 20 21 20 18 15 12 10 11 10 8 7 7
6 2 3 7 8 3 4 6 4 4 9 20 24 25 27 28 30 30 29 28 29 28 27 26 25 24 23 23 23 25 23 22 22 23 23 22 21 21 21 21 19 18 14 14 13 10 8 10 10
5 3 4 4 2 2 4 11 11 16 11 19 21 25 30 32 35 31 31 30 31 31 30 29 27 25 24 23 25 26 24 24 23 23 22 22 22 21 23 19 20 17 16 16 14 12 12 11 11
5 3 4 4 3 3 7 9 11 22 18 26 30 27 31 35 32 33 33 33 34 35 35 33 31 28 26 26 27 30 28 27 25 25 23 25 25 26 26 22 20 17 16 15 15 15 15 17 14
2 3 6 5 3 2 8 14 13 9 16 28 33 36 38 37 36 35 35 38 39 38 37 35 33 32 29 27 28 31 29 28 26 25 24 25 26 28 25 22 19 19 19 17 17 16 19 17 15
5 6 5 6 4 4 5 8 8 8 20 29 35 38 39 43 43 43 40 41 42 42 40 38 36 34 31 29 31 33 30 29 30 29 28 25 23 25 24 21 20 20 18 18 18 17 13 14 15
5 7 5 3 2 4 1 6 7 7 9 9 31 37 45 46 47 45 43 43 46 45 41 40 38 37 34 32 33 34 35 35 35 30 27 23 25 26 25 24 22 21 22 21 19 18 14 12 11
6 4 6 3 3 3 1 2 5 2 8 14 21 38 39 40 37 38 38 38 39 44 46 43 41 39 36 35 35 36 34 33 30 30 29 25 27 28 26 25 24 25 25 22 18 17 15 13 10
8 6 6 4 2 5 11 8 7 6 9 6 17 34 35 31 25 24 23 24 29 35 44 45 42 40 38 36 35 35 35 34 35 34 33 30 30 30 28 27 28 27 25 22 20 18 16 13 11
3 6 2 3 1 9 3 4 16 6 10 9 15 33 25 20 17 15 16 18 22 28 36 45 44 43 40 38 36 36 35 34 33 35 34 32 32 32 31 32 32 29 26 24 21 18 15 12 9
9 8 6 7 4 5 3 8 8 10 16 24 26 33 31 25 22 20 19 19 22 25 30 41 45 43 41 39 38 37 35 35 35 34 35 32 32 32 33 34 33 30 27 24 20 17 14 11 9
6 8 3 1 2 3 5 8 9 8 12 16 28 25 29 22 17 16 15 16 18 22 26 36 44 44 42 40 39 38 37 38 38 36 35 34 31 35 37 38 35 32 28 24 20 16 14 12 10
4 6 3 2 3 5 6 7 7 7 9 12 9 23 30 22 15 13 12 13 15 18 21 29 41 44 42 41 40 39 39 38 38 38 36 35 34 38 41 41 37 33 29 25 21 18 16 13 10
3 4 1 4 5 5 3 9 8 10 12 9 10 13 10 10 8 6 8 12 15 17 20 26 37 43 43 41 40 40 42 39 39 38 37 37 38 41 43 42 38 34 30 27 23 19 17 14 12
1 5 7 4 5 4 2 15 5 8 7 8 17 12 7 5 4 6 5 9 15 17 19 25 34 41 43 41 40 41 42 40 40 40 39 39 40 43 44 42 39 35 30 27 24 21 18 16 13
Wind_Direction
243 288 299 289 57 65 313 238 225 146 211 182 130 154 157 75 138 191 147 144 147 158 152 148 145 144 133 124 115 109 105 103 97 87 81 73 68 67 66 65 66 66 67 66 65 62 64 66 68
225 233 309 94 88 80 263 262 186 193 133 113 101 98 66 73 111 141 154 161 157 161 156 152 152 148 138 129 123 114 105 105 93 78 70 70 67 67 66 66 66 67 68 71 68 65 62 60 56
181 258 280 91 111 157 189 224 181 144 136 114 114 90 104 121 129 143 158 160 158 164 162 160 161 158 150 143 132 120 107 89 75 69 73 77 70 67 64 62 63 64 66 67 69 72 74 71 70
175 133 62 79 113 205 201 181 165 144 222 143 136 86 128 156 154 155 152 156 159 166 167 170 170 168 164 159 155 144 128 109 88 79 79 82 76 71 62 57 56 57 58 61 66 74 78 79 76
147 78 56 79 314 249 241 165 159 165 134 141 158 175 165 166 167 160 162 162 167 173 173 174 175 176 177 174 172 166 151 128 103 101 99 92 80 65 59 57 57 55 59 63 69 71 75 77 74
92 74 62 152 250 334 141 172 163 181 162 161 144 150 162 178 170 166 168 171 167 179 180 181 184 186 187 186 186 185 179 163 140 128 113 97 76 67 63 64 62 55 54 62 65 69 73 76 75
120 80 166 155 175 315 176 170 190 178 163 195 158 136 195 177 171 171 172 175 178 182 187 189 193 194 197 199 198 199 194 186 173 156 137 116 96 70 71 75 68 66 73 70 65 62 60 58 59
114 94 116 199 187 225 186 169 213 179 181 160 175 193 212 186 177 177 179 183 187 189 193 196 201 203 205 204 205 206 205 201 194 191 179 152 130 101 89 77 61 58 64 70 67 61 55 56 56
109 66 168 195 153 227 169 153 172 186 160 180 205 227 218 189 186 184 187 191 194 198 200 203 207 207 209 211 216 218 216 212 208 203 194 194 183 170 143 87 49 56 65 73 67 62 61 58 61
82 111 209 189 192 196 187 177 169 172 182 217 225 227 222 194 196 196 197 199 200 205 210 214 211 213 213 209 214 216 232 235 233 227 223 215 205 197 173 191 170 65 88 83 81 70 66 62 61
119 165 188 205 223 228 185 200 176 166 231 220 222 219 214 198 203 205 207 211 213 214 216 219 224 220 217 214 213 209 216 228 230 228 228 227 225 210 217 228 195 161 271 166 141 117 81 58 55
89 107 164 161 218 147 171 171 208 207 222 248 238 235 219 206 208 212 213 216 218 221 223 224 227 227 226 224 225 215 213 219 225 225 227 232 229 242 232 222 224 224 239 223 171 156 132 77 63
78 205 140 257 273 279 200 224 228 242 237 251 245 227 223 215 216 218 219 223 226 227 229 231 232 231 231 229 231 223 218 218 223 219 222 225 234 225 231 231 222 221 239 205 186 177 169 101 97
122 136 302 292 260 256 229 260 247 248 242 239 241 233 226 224 222 220 223 224 228 231 233 234 235 235 235 234 234 233 219 220 221 220 218 223 231 228 231 230 200 224 245 236 197 192 193 132 128
98 48 335 238 240 247 199 296 239 241 252 243 240 235 227 226 224 229 234 234 234 236 235 237 237 236 237 236 233 233 219 221 219 217 218 216 216 220 226 214 233 243 242 224 196 200 175 180 150
52 50 32 255 162 278 150 265 273 271 244 248 244 235 230 228 230 232 234 238 237 236 237 239 239 239 239 237 230 225 218 218 220 216 216 216 215 219 222 218 230 237 236 219 204 184 181 176 153
10 233 210 315 196 136 170 262 277 299 244 245 242 241 237 236 235 235 234 238 238 239 240 240 241 241 240 236 225 217 213 217 215 215 217 218 217 216 218 221 225 230 221 202 196 198 191 175 162
208 226 257 252 205 177 230 255 273 267 272 260 256 248 244 243 244 243 240 239 240 240 241 241 241 241 237 230 219 216 213 213 214 215 216 219 221 218 205 222 231 228 208 194 189 192 182 182 169
135 182 231 245 261 210 237 261 258 270 259 258 257 254 251 247 252 245 242 241 240 240 239 240 240 239 235 227 215 214 216 208 214 216 219 221 220 222 227 225 224 212 199 190 190 193 189 173 168
147 198 255 284 247 199 279 269 263 239 247 247 253 252 250 252 252 249 242 239 240 241 241 240 238 237 235 229 221 220 219 209 214 216 220 221 224 224 223 212 206 200 194 194 191 191 181 178 175
215 190 220 228 335 253 321 281 257 259 241 255 255 254 255 254 255 255 248 244 242 241 240 239 238 236 233 227 219 218 217 212 215 215 217 218 222 207 201 198 199 199 196 191 181 180 189 189 185
237 208 172 201 59 249 93 286 282 259 256 232 254 255 256 254 256 257 258 249 246 246 242 239 235 233 230 228 223 222 222 219 214 212 216 216 208 202 197 197 198 198 187 187 180 178 184 194 204
227 126 157 137 179 320 149 285 245 334 269 257 253 257 259 263 265 266 265 264 258 247 242 237 232 229 228 227 223 221 222 222 224 209 214 210 209 200 199 199 197 190 185 185 186 183 185 190 202
148 82 56 53 94 275 185 172 254 194 213 252 255 261 267 275 276 270 268 265 258 248 240 235 231 228 227 226 222 221 218 220 216 213 210 210 210 204 200 197 192 188 187 188 187 189 190 196 198
123 98 314 330 5 241 59 166 248 295 264 223 250 267 273 281 277 272 273 267 262 250 238 230 227 226 225 224 222 221 218 218 222 218 212 209 212 206 201 193 188 188 190 192 193 194 196 197 199
199 163 170 214 208 270 102 233 248 239 260 257 258 262 269 272 279 281 277 271 265 254 241 229 225 224 224 224 222 219 215 217 222 223 221 221 219 214 203 193 192 193 195 196 195 196 197 197 200
196 204 195 55 75 11 233 281 295 264 271 270 256 259 263 267 276 282 284 282 269 258 245 231 224 225 226 225 222 218 215 218 221 223 225 224 223 214 203 197 196 196 199 199 200 202 203 203 203
170 163 81 348 196 249 269 268 229 276 255 254 265 256 268 274 274 270 278 281 272 259 246 234 227 228 228 226 224 221 217 221 224 224 224 224 219 210 204 200 198 200 200 202 204 205 204 205 205
138 208 143 137 159 184 289 265 215 218 234 254 263 273 280 279 267 251 263 275 272 257 244 234 227 227 228 229 226 222 218 222 224 225 225 224 220 212 207 204 203 204 204 205 207 206 208 206 207
256 226 154 144 224 241 176 266 145 231 256 253 264 285 292 276 252 272 284 281 271 265 252 238 228 228 230 231 229 226 222 222 224 225 224 224 220 213 209 207 206 206 207 209 209 211 210 211 210